Flag for Paraguay Weather past 2 weeks in Asuncion, Paraguay

Now
70 °F

Clear.


Feels Like: 70 °F
Forecast: 59 / 83 °F
Wind: 5 mph from East

Location: Asuncion / Aeropuerto

Current Time: Sep 16, 2014 at 8:32:15 PM

Latest Report: Sep 16, 2014 at 7:00 PM


Visibility: 6 mi

Pressure: 29.92 "Hg

Humidity: 57%

Dew point: 54 °F

Location of AsuncionLocation

Historic Weather in Asuncion — Graph

°F

Asuncion temperature yesterday

Maximum temperature yesterday: 75 °F (at 12:00 PM)
Minimum temperature yesterday: 57 °F (at 4:00 AM)
Average temperature yesterday: 65 °F

Past Weeks' High & Low Weather Summary

 TemperatureHumidityPressure
High95 °F (Sep 2, 1:00 PM)100% (Sep 7, 5:00 AM)30.15 "Hg (Sep 7, 5:00 AM)
Low36 °F (Sep 7, 7:30 AM)32% (Sep 13, 3:00 PM)29.59 "Hg (Sep 2, 4:00 AM)
Average76 °F69%29.87 "Hg
* Reported Sep 1 7:00 PM — Sep 16 7:00 PM, Asuncion, Weather by CustomWeather, © 2014

Note: Actual official high and low records may vary slightly from our data, if they occured in-between our weather recording intervals... More about our weather records

Advertising

Asuncion weather history for previous 24 hours

 ConditionsComfort  
Time TempWeatherWind HumidityBarometerVisibility
7:00 PM
Sep 16
70 °FClear.5 mph57%29.92 "Hg6 mi
6:00 PM72 °FClear.5 mph53%29.92 "Hg10 mi
5:00 PM77 °FClear.3 mph44%29.92 "Hg10 mi
4:00 PM79 °FSunny.6 mph42%29.92 "Hg10 mi
3:00 PM79 °FSunny.6 mph39%29.95 "Hg10 mi
2:00 PM77 °FSunny.7 mph39%29.98 "Hg10 mi
1:00 PM77 °FSunny.7 mph42%30.01 "Hg10 mi
12:00 PM75 °FSunny.6 mph47%30.04 "Hg10 mi
11:00 AM73 °FPassing clouds.6 mph50%30.07 "HgN/A
10:00 AM72 °FPassing clouds.8 mph50%30.09 "HgN/A
9:30 AM70 °FPassing clouds.9 mph57%30.09 "HgN/A
9:00 AM70 °FSunny.7 mph53%30.09 "Hg10 mi
8:30 AM68 °FSunny.9 mph60%30.09 "Hg10 mi
7:30 AM63 °FSunny.3 mph77%30.09 "Hg10 mi
7:00 AM61 °FSunny.No wind77%30.09 "Hg10 mi
6:00 AM54 °FSunny.5 mph94%30.07 "Hg10 mi
5:00 AM55 °FSunny.6 mph88%30.04 "Hg10 mi
4:00 AM54 °FClear.3 mph94%30.04 "Hg10 mi
3:00 AM54 °FClear.No wind88%30.04 "Hg10 mi
2:00 AM55 °FClear.No wind82%30.07 "Hg10 mi
1:00 AM55 °FClear.No wind88%30.07 "Hg10 mi
12:00 AM57 °FClear.5 mph82%30.07 "Hg10 mi
11:00 PM
Sep 15
61 °FClear.6 mph72%30.09 "Hg10 mi
10:00 PM61 °FClear.8 mph77%30.09 "Hg10 mi
9:00 PM59 °FClear.3 mph77%30.07 "Hg10 mi
8:00 PM64 °FClear.3 mph68%30.07 "Hg10 mi
Weather by CustomWeather, © 2014

See weather overviewHow to use our weather pages